USHUAIA_(ARG-NAVY) current weather conditions

sailwx.info

Wind from 140 at 4 knots

Air temperature 7.0° C
Visibility: greater than 5.4 NM
Dewpoint 3.0° C

Last reported at 2019-Jun-16 22:00 UTC.
Time now 2019-Jun-17 17:05 UTC

Location: S 54°51' W 068°18'.
View on Google Maps.

See reports from other nearby stations

  
Tides and Currents Weather Stations Pressure Air Temp Water Temp Dewpoint Dewpoint Depression Visibility Wind Speed Wind Dir Waves Ship Positions
date/time (UTC)wind fromknots sea level pressurealtimeterstation pressurevisibilityair tempwater tempwave heightnotes
2019-Jun-16 23:00 090 6 5.4 6.0
2019-Jun-16 22:00 140 4 5.4 7.0
2019-Jun-16 21:00 320 6 5.4 7.0
2019-Jun-16 20:00 5.4 9.0
2019-Jun-16 19:00 5.410.0
2019-Jun-16 18:00 5.411.0
2019-Jun-16 17:00 5.4 9.0
2019-Jun-16 16:00 5.4 9.0
2019-Jun-16 15:00 340 5 5.410.0
2019-Jun-16 14:00 340 4 5.4 8.0
2019-Jun-16 13:00 340 7 5.410.0
2019-Jun-16 12:00 020 2 5.4 9.0 Showers in the vicinity.
2019-Jun-16 11:00 5.4 9.0 Showers in the vicinity.
2019-Jun-16 10:00 340 7 5.4 7.0 Showers in the vicinity.
2019-Jun-16 09:00 5.4 8.0 Light drizzle.
2019-Jun-16 08:00 050 5 5.4 8.0 Drizzle.
2019-Jun-16 07:00 270 5 5.4 8.0 Light drizzle.
2019-Jun-16 06:00 360 7 5.4 8.0 Light drizzle.
2019-Jun-16 05:00 340 6 5.4 7.0
2019-Jun-16 04:00 270 6 5.4 8.0
2019-Jun-16 03:00 250 15 5.4 8.0
2019-Jun-16 02:00 230 26 gusting 36 5.4 8.0
2019-Jun-16 01:00 230 25 gusting 36 5.4 8.0
2019-Jun-16 00:00 230 20 gusting 33 5.4 8.0
2019-Jun-15 23:00 250 20 5.4 8.0
2019-Jun-15 22:00 290 11 5.4 9.0
2019-Jun-15 21:00 270 13 gusting 26 5.4 8.0
2019-Jun-15 20:00 270 6 5.4 8.0
2019-Jun-15 19:00 360 6 5.4 8.0
2019-Jun-15 18:00 360 7 5.4 7.0
2019-Jun-15 17:00 320 6 5.4 5.0